Find Local Weather

World > North America > United States > New Jersey

Lopatcong, New Jersey Regional Weather

Lat: 40.69N, Lon: 75.17W
Wx Zone: NJZ007
Feedback

Lopatcong, NJ Regional Weather

Expires:201905271000;;536265
ASUS41 KPHI 270912
RWRPHI

REGIONAL WEATHER ROUNDUP
NATIONAL WEATHER SERVICE MOUNT HOLLY NJ
500 AM EDT MON MAY 27 2019

NOTE:  "FAIR" INDICATES FEW OR NO CLOUDS BELOW 12,000 FEET WITH NO
SIGNIFICANT WEATHER AND/OR OBSTRUCTIONS TO VISIBILITY.

 * = STATION DOES NOT REPORT PRECIPITATION (E.G. RAIN, SNOW, ETC.) 
        OR FOG.


NJZ001>014-271000-
NORTHERN NEW JERSEY
  
CITY           SKY/WX    TMP DP  RH WIND       PRES   REMARKS
SUSSEX         FAIR      58  52  80 CALM      29.94R                  
ANDOVER*         N/A     58  52  80 SE3       29.93R                  
MORRISTOWN     FAIR      63  52  67 N5        29.90R                  
NEWARK         FAIR      67  50  54 N14       29.89R                  
TETERBORO      FAIR      65  50  58 N7        29.89R                  
CALDWELL       FAIR      65  51  60 CALM      29.91R                  
SOMERVILLE     FAIR      58  57  97 S3        29.90R FOG              
ALLAIRE*       CLOUDY    67  62  84 NW7       29.91R                  
TOMS RIVER*    CLOUDY    68  62  81 NW3       29.91R                  

$$

SKY/WX - Weather  TMP - Temperature  DP - Dew Point  RH - Relative Humidity
WIND - Wind Direction/Speed PRES - Barometric Pressure VSB - Visibility
WCI - Wind Chill Index E13G22 Wind - East Wind 13 mph/Gusts of 22 mph